User: anonymous
Location: Nebraska Star Party
(42.6000°N, 100.8833°W)
Time: 03:44:59
(UTC-05:00)
Language:

Iridium 37 - Orbit

View from above orbital plane
View from above orbital plane
View from above satellite
View from above satellite

Ground track
Ground track

The orbit data is extracted from the following two-line orbital elements,

1 24968U 97056D   14105.81285102  .00000082  00000-0  22356-4 0  7680
2 24968 086.3951 083.0589 0002227 101.9850 258.1596 14.34215184866507
Epoch (UTC): 15 April 2014 19:30:30
Eccentricity: 0.0002227
inclination: 86.3951°
perigee height: 776 km
apogee height: 779 km
right ascension of ascending node: 83.0589°
argument of perigee: 101.9850°
revolutions per day: 14.34215184
mean anomaly at epoch: 258.1596°
orbit number at epoch: 86650

The dashed part of the orbit path shows where the satellite is in the earth's shadow,  

DLR